This is the latest recevied weather packets stored in our database for station/object HB9HFD-13. If no packets are shown the sender has not sent any weather packets the latest 1 day(s).
| Time | Temp. | Humidity | Pressure | Rain* | Wind** | Luminosity | Snow |
|---|---|---|---|---|---|---|---|
| 1777960468 | 10.56° C | 96% | 1008.4 hPa | 1.02 mm | 0 m/s | - | - |
| 1777960168 | 10.56° C | 96% | 1008.4 hPa | 1.02 mm | 0 m/s | - | - |
| 1777959868 | 10.56° C | 96% | 1008.4 hPa | 1.02 mm | 0 m/s | - | - |
| 1777959567 | 10.56° C | 96% | 1008.5 hPa | 1.27 mm | 0 m/s | - | - |
| 1777959267 | 10.56° C | 96% | 1008.4 hPa | 1.02 mm | 0 m/s | - | - |
| 1777958967 | 10.56° C | 96% | 1008.4 hPa | 1.27 mm | 0 m/s | - | - |
| 1777958667 | 10.56° C | 96% | 1008.4 hPa | 1.27 mm | 0 m/s | - | - |
| 1777958366 | 10.56° C | 96% | 1008.4 hPa | 1.78 mm | 0 m/s | - | - |
| 1777958066 | 10.56° C | 96% | 1008.5 hPa | 2.03 mm | 0 m/s | - | - |
| 1777957766 | 10° C | 96% | 1008.5 hPa | 2.54 mm | 0 m/s | - | - |
| 1777957466 | 10° C | 95% | 1008.6 hPa | 2.79 mm | 0 m/s | - | - |
| 1777957165 | 10° C | 95% | 1008.7 hPa | 3.05 mm | 0 m/s | - | - |
| 1777956865 | 10° C | 95% | 1008.7 hPa | 3.05 mm | 0 m/s | - | - |
| 1777956565 | 10° C | 95% | 1008.5 hPa | 3.05 mm | 0 m/s | - | - |
| 1777956265 | 10° C | 95% | 1008.7 hPa | 3.3 mm | 0 m/s | - | - |
| 1777955964 | 10.56° C | 95% | 1008.7 hPa | 3.56 mm | 0 m/s | - | - |
| 1777955664 | 10.56° C | 95% | 1008.7 hPa | 3.81 mm | 0 m/s | - | - |
| 1777955364 | 10.56° C | 95% | 1008.8 hPa | 3.81 mm | 0 m/s | - | - |
| 1777955063 | 10.56° C | 95% | 1008.9 hPa | 3.81 mm | 0 m/s | - | - |
| 1777954763 | 10.56° C | 95% | 1009 hPa | 3.56 mm | 0 m/s | - | - |
| 1777954463 | 10.56° C | 95% | 1009 hPa | 3.56 mm | 0 m/s | - | - |
| 1777954163 | 10.56° C | 95% | 1009 hPa | 3.05 mm | 0 m/s | - | - |
| 1777953863 | 10.56° C | 95% | 1009.2 hPa | 2.79 mm | 0 m/s | - | - |
| 1777953562 | 10.56° C | 95% | 1009.1 hPa | 2.29 mm | 0 m/s | - | - |
| 1777953262 | 10.56° C | 95% | 1009.2 hPa | 2.29 mm | 0 m/s | - | - |
* Rain latest hour (hover to see other rain measurements)
** Current wind speed in m/s (hover to see current wind gust speed)